Regional Weather Roundup
Issued by NWS Albany, NY

Home | Current Version | Previous Version | Text Only | Print | Product List | Glossary On
Versions: 1 2 3 4 5 6 7 8 9 10 11 12 13 14 15 16 17 18 19 20 21 22 23 24 25 26 27
000
ASUS41 KALY 241810
RWRALY

NEW YORK STATE HOURLY WEATHER ROUNDUP
NATIONAL WEATHER SERVICE ALBANY NY
100 PM EST FRI FEB 24 2017

NOTE: "FAIR" INDICATES FEW OR NO CLOUDS BELOW 12,000 FEET WITH NO
SIGNIFICANT WEATHER AND/OR NO OBSTRUCTIONS TO VISIBILITY.

NYZ032-033-038>043-046>054-057>066-NYZ062>081-082-084-241900-
EAST


CITY           SKY/WX    TMP DP  RH WIND       PRES   REMARKS
ALBANY         CLOUDY    69  52  54 S12       29.81F
GLENS FALLS    CLOUDY    54  44  69 CALM      29.83F
POUGHKEEPSIE   SUNNY     71  52  50 S12       29.84F
NEWBURGH       MOSUNNY   73  55  53 S12G17    29.87F
MONTGOMERY     SUNNY     75  54  47 SW13      29.82F
WHITE PLAINS   MOSUNNY   69  54  58 S12       29.89F
ISLIP          MOSUNNY   62  53  72 S14       29.93F
NEW YORK CITY  MOSUNNY   68  52  56 S14       29.89F
CENTRAL PARK   SUNNY     69  52  54 S9        29.92F
$$

NYZ005>009-017-018-044>046-055-056-241900-
CENTRAL


CITY           SKY/WX    TMP DP  RH WIND       PRES   REMARKS
FULTON         CLOUDY    53  49  86 VRB6      29.72F
SYRACUSE       PTSUNNY   53  49  86 E10       29.73F
ROME           CLOUDY    56  51  84 E6        29.78F
ELMIRA         MOSUNNY   74  51  44 S14G22    29.73F
BINGHAMTON     MOSUNNY   68  51  54 S9G18     29.78F
MONTICELLO     SUNNY     70  54  56 S14G22    29.87F
$$

NYZ026>034-041>043-087-241900-
NORTH


CITY           SKY/WX    TMP DP  RH WIND       PRES   REMARKS
WATERTOWN      CLOUDY    42  41  96 NE13      29.76F
FORT DRUM      NOT AVBL
OGDENSBURG     DRIZZLE   37  36  94 N5        29.82F WCI  34
MASSENA        MIX PCPN  37  35  92 NE10      29.84F WCI  30
SARANAC LAKE   CLOUDY    42  42 100 NE7       29.76F
PLATTSBURGH    CLOUDY    43  38  82 N5        29.85F
$$

NYZ001>004-010>016-019>021-085-241900-
WEST


CITY           SKY/WX    TMP DP  RH WIND       PRES   REMARKS
NIAGARA FALLS  MOSUNNY   66  55  67 NW7       29.65F
BUFFALO        MOSUNNY   70  55  59 SW18G30   29.65F
DUNKIRK        CLOUDY    72  54  53 SW23G31   29.65F
JAMESTOWN        N/A     68  52  56 SW16G22   29.70F
WELLSVILLE     MOSUNNY   70  50  49 S10G28    29.75F
ROCHESTER      PTSUNNY   64  55  72 VRB3      29.70F
PENN YAN       CLOUDY    72  52  49 S13       29.71F
$$

             KEY
       WCI = WIND CHILL INDEX
       VSB = VISIBILITY
       HX  = HEAT INDEX
$$




USA.gov is the U.S. government's official web portal to all federal, state and local government web resources and services.